owner,sensor,date,latitude,longitude,vertical_datum,sea_water_practical_salinity,qcFlag 
TABS,ioos:station:wmo:42048:1,2012-08-01T00:00:00Z,27.9396,-96.8429,2.0,36.3275,11111222 
TABS,ioos:station:wmo:42048:1,2012-08-01T00:30:00Z,27.9396,-96.8429,2.0,36.3212,11111222 
TABS,ioos:station:wmo:42048:1,2012-08-01T01:00:00Z,27.9396,-96.8429,2.0,36.3208,11111222 
TABS,ioos:station:wmo:42048:1,2012-08-01T01:30:00Z,27.9396,-96.8429,2.0,36.3239,11111222 
TABS,ioos:station:wmo:42048:1,2012-08-01T02:00:00Z,27.9396,-96.8429,2.0,36.3255,11111222 
TABS,ioos:station:wmo:42048:1,2012-08-01T02:30:00Z,27.9396,-96.8429,2.0,36.3207,11111222 
TABS,ioos:station:wmo:42048:1,2012-08-01T03:00:00Z,27.9396,-96.8429,2.0,36.3178,11111222 
TABS,ioos:station:wmo:42048:1,2012-08-01T03:30:00Z,27.9396,-96.8429,2.0,36.3175,11111222 
TABS,ioos:station:wmo:42048:1,2012-08-01T04:00:00Z,27.9396,-96.8429,2.0,36.3162,11111222 
TABS,ioos:station:wmo:42048:1,2012-08-01T04:30:00Z,27.9396,-96.8429,2.0,36.3163,11111222 
TABS,ioos:station:wmo:42048:1,2012-08-01T05:00:00Z,27.9396,-96.8429,2.0,36.3189,11111222 
TABS,ioos:station:wmo:42048:1,2012-08-01T05:30:00Z,27.9396,-96.8429,2.0,36.3215,11111222 
TABS,ioos:station:wmo:42048:1,2012-08-01T06:00:00Z,27.9396,-96.8429,2.0,36.3224,11111222 
TABS,ioos:station:wmo:42048:1,2012-08-01T06:30:00Z,27.9396,-96.8429,2.0,36.3232,11111222 
TABS,ioos:station:wmo:42048:1,2012-08-01T07:00:00Z,27.9396,-96.8429,2.0,36.3242,11111222 
TABS,ioos:station:wmo:42048:1,2012-08-01T07:30:00Z,27.9396,-96.8429,2.0,36.3325,11111222 
TABS,ioos:station:wmo:42048:1,2012-08-01T08:00:00Z,27.9396,-96.8429,2.0,36.3413,11111222 
TABS,ioos:station:wmo:42048:1,2012-08-01T08:30:00Z,27.9396,-96.8429,2.0,36.3479,11111222 
TABS,ioos:station:wmo:42048:1,2012-08-01T09:00:00Z,27.9396,-96.8429,2.0,36.3489,11111222 
TABS,ioos:station:wmo:42048:1,2012-08-01T09:30:00Z,27.9396,-96.8429,2.0,36.3522,11111222 
TABS,ioos:station:wmo:42048:1,2012-08-01T10:00:00Z,27.9396,-96.8429,2.0,36.3629,11111222 
TABS,ioos:station:wmo:42048:1,2012-08-01T10:30:00Z,27.9396,-96.8429,2.0,36.3611,11111222 
TABS,ioos:station:wmo:42048:1,2012-08-01T11:00:00Z,27.9396,-96.8429,2.0,36.3643,11111222 
TABS,ioos:station:wmo:42048:1,2012-08-01T11:30:00Z,27.9396,-96.8429,2.0,36.3737,11111222 
TABS,ioos:station:wmo:42048:1,2012-08-01T12:00:00Z,27.9396,-96.8429,2.0,36.3751,11111222 
TABS,ioos:station:wmo:42048:1,2012-08-01T12:30:00Z,27.9396,-96.8429,2.0,36.373,11111222 
TABS,ioos:station:wmo:42048:1,2012-08-01T13:00:00Z,27.9396,-96.8429,2.0,36.3788,11111222 
TABS,ioos:station:wmo:42048:1,2012-08-01T13:30:00Z,27.9396,-96.8429,2.0,36.382,11111222 
TABS,ioos:station:wmo:42048:1,2012-08-01T14:00:00Z,27.9396,-96.8429,2.0,36.3898,11111222 
TABS,ioos:station:wmo:42048:1,2012-08-01T14:30:00Z,27.9396,-96.8429,2.0,36.3915,11111222 
TABS,ioos:station:wmo:42048:1,2012-08-01T15:00:00Z,27.9396,-96.8429,2.0,36.3912,11111222 
TABS,ioos:station:wmo:42048:1,2012-08-01T15:30:00Z,27.9396,-96.8429,2.0,36.3922,11111222 
TABS,ioos:station:wmo:42048:1,2012-08-01T16:00:00Z,27.9396,-96.8429,2.0,36.3933,11111222 
TABS,ioos:station:wmo:42048:1,2012-08-01T16:30:00Z,27.9396,-96.8429,2.0,36.3958,11111222 
TABS,ioos:station:wmo:42048:1,2012-08-01T17:00:00Z,27.9396,-96.8429,2.0,36.3954,11111222 
TABS,ioos:station:wmo:42048:1,2012-08-01T17:30:00Z,27.9396,-96.8429,2.0,36.3961,11111222 
TABS,ioos:station:wmo:42048:1,2012-08-01T18:00:00Z,27.9396,-96.8429,2.0,36.3979,11111222 
TABS,ioos:station:wmo:42048:1,2012-08-01T18:30:00Z,27.9396,-96.8429,2.0,36.4012,11111222 
TABS,ioos:station:wmo:42048:1,2012-08-01T19:00:00Z,27.9396,-96.8429,2.0,36.4017,11111222 
TABS,ioos:station:wmo:42048:1,2012-08-01T19:30:00Z,27.9396,-96.8429,2.0,36.3963,11111222 
TABS,ioos:station:wmo:42048:1,2012-08-01T20:00:00Z,27.9396,-96.8429,2.0,36.389,11111222 
TABS,ioos:station:wmo:42048:1,2012-08-01T20:30:00Z,27.9396,-96.8429,2.0,36.3881,11111222 
TABS,ioos:station:wmo:42048:1,2012-08-01T21:00:00Z,27.9396,-96.8429,2.0,36.385,11111222 
TABS,ioos:station:wmo:42048:1,2012-08-01T21:30:00Z,27.9396,-96.8429,2.0,36.3823,11111222 
TABS,ioos:station:wmo:42048:1,2012-08-01T22:00:00Z,27.9396,-96.8429,2.0,36.3898,11111222 
TABS,ioos:station:wmo:42048:1,2012-08-01T22:30:00Z,27.9396,-96.8429,2.0,36.3825,11111222 
TABS,ioos:station:wmo:42048:1,2012-08-01T23:00:00Z,27.9396,-96.8429,2.0,36.3874,11111222 
TABS,ioos:station:wmo:42048:1,2012-08-01T23:30:00Z,27.9396,-96.8429,2.0,36.3782,11111222 
TABS,ioos:station:wmo:42048:1,2012-08-02T00:00:00Z,27.9396,-96.8429,2.0,36.3801,11111222 
TABS,ioos:station:wmo:42048:1,2012-08-02T00:30:00Z,27.9396,-96.8429,2.0,36.3776,11111222 
TABS,ioos:station:wmo:42048:1,2012-08-02T01:00:00Z,27.9396,-96.8429,2.0,36.3769,11111222 
TABS,ioos:station:wmo:42048:1,2012-08-02T01:30:00Z,27.9396,-96.8429,2.0,36.3869,11111222 
TABS,ioos:station:wmo:42048:1,2012-08-02T02:00:00Z,27.9396,-96.8429,2.0,36.3817,11111222 
TABS,ioos:station:wmo:42048:1,2012-08-02T02:30:00Z,27.9396,-96.8429,2.0,36.3814,11111222 
TABS,ioos:station:wmo:42048:1,2012-08-02T03:00:00Z,27.9396,-96.8429,2.0,36.3833,11111222 
TABS,ioos:station:wmo:42048:1,2012-08-02T03:30:00Z,27.9396,-96.8429,2.0,36.3801,11111222 
TABS,ioos:station:wmo:42048:1,2012-08-02T04:00:00Z,27.9396,-96.8429,2.0,36.3813,11111222 
TABS,ioos:station:wmo:42048:1,2012-08-02T04:30:00Z,27.9396,-96.8429,2.0,36.3802,11111222 
TABS,ioos:station:wmo:42048:1,2012-08-02T05:00:00Z,27.9396,-96.8429,2.0,36.3774,11111222 
TABS,ioos:station:wmo:42048:1,2012-08-02T05:30:00Z,27.9396,-96.8429,2.0,36.3737,11111222 
TABS,ioos:station:wmo:42048:1,2012-08-02T06:00:00Z,27.9396,-96.8429,2.0,36.37,11111222 
TABS,ioos:station:wmo:42048:1,2012-08-02T06:30:00Z,27.9396,-96.8429,2.0,36.3663,11111222 
TABS,ioos:station:wmo:42048:1,2012-08-02T07:00:00Z,27.9396,-96.8429,2.0,36.3664,11111222 
TABS,ioos:station:wmo:42048:1,2012-08-02T07:30:00Z,27.9396,-96.8429,2.0,36.3679,11111222 
TABS,ioos:station:wmo:42048:1,2012-08-02T08:00:00Z,27.9396,-96.8429,2.0,36.3688,11111222 
TABS,ioos:station:wmo:42048:1,2012-08-02T08:30:00Z,27.9396,-96.8429,2.0,36.3713,11111222 
TABS,ioos:station:wmo:42048:1,2012-08-02T09:00:00Z,27.9396,-96.8429,2.0,36.3692,11111222 
TABS,ioos:station:wmo:42048:1,2012-08-02T09:30:00Z,27.9396,-96.8429,2.0,36.3718,11111222 
TABS,ioos:station:wmo:42048:1,2012-08-02T10:00:00Z,27.9396,-96.8429,2.0,36.372,11111222 
TABS,ioos:station:wmo:42048:1,2012-08-02T10:30:00Z,27.9396,-96.8429,2.0,36.3752,11111222 
TABS,ioos:station:wmo:42048:1,2012-08-02T11:00:00Z,27.9396,-96.8429,2.0,36.3755,11111222 
TABS,ioos:station:wmo:42048:1,2012-08-02T11:30:00Z,27.9396,-96.8429,2.0,36.3788,11111222 
TABS,ioos:station:wmo:42048:1,2012-08-02T12:00:00Z,27.9396,-96.8429,2.0,36.3808,11111222 
TABS,ioos:station:wmo:42048:1,2012-08-02T12:30:00Z,27.9396,-96.8429,2.0,36.3831,11111222 
TABS,ioos:station:wmo:42048:1,2012-08-02T13:00:00Z,27.9396,-96.8429,2.0,36.3835,11111222 
TABS,ioos:station:wmo:42048:1,2012-08-02T13:30:00Z,27.9396,-96.8429,2.0,36.3886,11111222 
TABS,ioos:station:wmo:42048:1,2012-08-02T14:00:00Z,27.9396,-96.8429,2.0,36.3895,11111222 
TABS,ioos:station:wmo:42048:1,2012-08-02T14:30:00Z,27.9396,-96.8429,2.0,36.3907,11111222 
TABS,ioos:station:wmo:42048:1,2012-08-02T15:00:00Z,27.9396,-96.8429,2.0,36.3884,11111222 
TABS,ioos:station:wmo:42048:1,2012-08-02T15:30:00Z,27.9396,-96.8429,2.0,36.3979,11111222 
TABS,ioos:station:wmo:42048:1,2012-08-02T16:00:00Z,27.9396,-96.8429,2.0,36.3912,11111222 
TABS,ioos:station:wmo:42048:1,2012-08-02T16:30:00Z,27.9396,-96.8429,2.0,36.3977,11111222 
TABS,ioos:station:wmo:42048:1,2012-08-02T17:00:00Z,27.9396,-96.8429,2.0,36.4007,11111222 
TABS,ioos:station:wmo:42048:1,2012-08-03T10:30:00Z,27.9396,-96.8429,2.0,36.387,11111222 
TABS,ioos:station:wmo:42048:1,2012-08-03T11:00:00Z,27.9396,-96.8429,2.0,36.3846,11111222 
TABS,ioos:station:wmo:42048:1,2012-08-03T11:30:00Z,27.9396,-96.8429,2.0,36.3823,11111222 
TABS,ioos:station:wmo:42048:1,2012-08-03T12:00:00Z,27.9396,-96.8429,2.0,36.383,11111222 
TABS,ioos:station:wmo:42048:1,2012-08-03T12:30:00Z,27.9396,-96.8429,2.0,36.3838,11111222 
TABS,ioos:station:wmo:42048:1,2012-08-03T13:00:00Z,27.9396,-96.8429,2.0,36.383,11111222 
TABS,ioos:station:wmo:42048:1,2012-08-03T13:30:00Z,27.9396,-96.8429,2.0,36.3817,11111222 
TABS,ioos:station:wmo:42048:1,2012-08-03T14:00:00Z,27.9396,-96.8429,2.0,36.3812,11111222 
TABS,ioos:station:wmo:42048:1,2012-08-03T14:30:00Z,27.9396,-96.8429,2.0,36.3803,11111222 
TABS,ioos:station:wmo:42048:1,2012-08-03T15:00:00Z,27.9396,-96.8429,2.0,36.3796,11111222 
TABS,ioos:station:wmo:42048:1,2012-08-03T15:30:00Z,27.9396,-96.8429,2.0,36.3778,11111222 
TABS,ioos:station:wmo:42048:1,2012-08-03T16:00:00Z,27.9396,-96.8429,2.0,36.3778,11111222 
TABS,ioos:station:wmo:42048:1,2012-08-03T16:30:00Z,27.9396,-96.8429,2.0,36.3825,11111222 
TABS,ioos:station:wmo:42048:1,2012-08-03T17:00:00Z,27.9396,-96.8429,2.0,36.381,11111222 
TABS,ioos:station:wmo:42048:1,2012-08-03T17:30:00Z,27.9396,-96.8429,2.0,36.3749,11111222 
TABS,ioos:station:wmo:42048:1,2012-08-03T18:00:00Z,27.9396,-96.8429,2.0,36.3836,11111222 
TABS,ioos:station:wmo:42048:1,2012-08-03T18:30:00Z,27.9396,-96.8429,2.0,36.3772,11111222 
TABS,ioos:station:wmo:42048:1,2012-08-03T19:00:00Z,27.9396,-96.8429,2.0,36.3905,11111222 
TABS,ioos:station:wmo:42048:1,2012-08-03T19:30:00Z,27.9396,-96.8429,2.0,36.3952,11111222 
TABS,ioos:station:wmo:42048:1,2012-08-03T20:00:00Z,27.9396,-96.8429,2.0,36.3798,11111222 
TABS,ioos:station:wmo:42048:1,2012-08-03T20:30:00Z,27.9396,-96.8429,2.0,36.3999,11111222 
TABS,ioos:station:wmo:42048:1,2012-08-03T21:00:00Z,27.9396,-96.8429,2.0,36.3871,11111222 
TABS,ioos:station:wmo:42048:1,2012-08-03T21:30:00Z,27.9396,-96.8429,2.0,36.3905,11111222 
TABS,ioos:station:wmo:42048:1,2012-08-03T22:00:00Z,27.9396,-96.8429,2.0,36.3872,11111222 
TABS,ioos:station:wmo:42048:1,2012-08-03T22:30:00Z,27.9396,-96.8429,2.0,36.3812,11111222 
TABS,ioos:station:wmo:42048:1,2012-08-03T23:00:00Z,27.9396,-96.8429,2.0,36.3803,11111222 
TABS,ioos:station:wmo:42048:1,2012-08-03T23:30:00Z,27.9396,-96.8429,2.0,36.3767,11111222 
TABS,ioos:station:wmo:42048:1,2012-08-04T00:00:00Z,27.9396,-96.8429,2.0,36.3802,11111222 
TABS,ioos:station:wmo:42048:1,2012-08-04T00:30:00Z,27.9396,-96.8429,2.0,36.3779,11111222 
TABS,ioos:station:wmo:42048:1,2012-08-04T01:00:00Z,27.9396,-96.8429,2.0,36.3757,11111222 
TABS,ioos:station:wmo:42048:1,2012-08-04T01:30:00Z,27.9396,-96.8429,2.0,36.3774,11111222 
TABS,ioos:station:wmo:42048:1,2012-08-04T02:00:00Z,27.9396,-96.8429,2.0,36.3756,11111222 
TABS,ioos:station:wmo:42048:1,2012-08-04T02:30:00Z,27.9396,-96.8429,2.0,36.3754,11111222 
TABS,ioos:station:wmo:42048:1,2012-08-04T03:00:00Z,27.9396,-96.8429,2.0,36.3754,11111222 
TABS,ioos:station:wmo:42048:1,2012-08-04T03:30:00Z,27.9396,-96.8429,2.0,36.3765,11111222 
TABS,ioos:station:wmo:42048:1,2012-08-04T04:00:00Z,27.9396,-96.8429,2.0,36.3772,11111222 
TABS,ioos:station:wmo:42048:1,2012-08-04T04:30:00Z,27.9396,-96.8429,2.0,36.3757,11111222 
TABS,ioos:station:wmo:42048:1,2012-08-04T05:00:00Z,27.9396,-96.8429,2.0,36.3776,11111222 
TABS,ioos:station:wmo:42048:1,2012-08-04T05:30:00Z,27.9396,-96.8429,2.0,36.3783,11111222 
TABS,ioos:station:wmo:42048:1,2012-08-04T06:00:00Z,27.9396,-96.8429,2.0,36.3759,11111222 
TABS,ioos:station:wmo:42048:1,2012-08-04T06:30:00Z,27.9396,-96.8429,2.0,36.3762,11111222 
TABS,ioos:station:wmo:42048:1,2012-08-04T07:00:00Z,27.9396,-96.8429,2.0,36.3765,11111222 
TABS,ioos:station:wmo:42048:1,2012-08-04T07:30:00Z,27.9396,-96.8429,2.0,36.3769,11111222 
TABS,ioos:station:wmo:42048:1,2012-08-04T08:00:00Z,27.9396,-96.8429,2.0,36.3773,11111222 
TABS,ioos:station:wmo:42048:1,2012-08-04T08:30:00Z,27.9396,-96.8429,2.0,36.3747,11111222 
TABS,ioos:station:wmo:42048:1,2012-08-04T09:00:00Z,27.9396,-96.8429,2.0,36.3764,11111222 
TABS,ioos:station:wmo:42048:1,2012-08-04T09:30:00Z,27.9396,-96.8429,2.0,36.3762,11111222 
TABS,ioos:station:wmo:42048:1,2012-08-04T10:00:00Z,27.9396,-96.8429,2.0,36.3764,11111222 
TABS,ioos:station:wmo:42048:1,2012-08-04T10:30:00Z,27.9396,-96.8429,2.0,36.3759,11111222 
TABS,ioos:station:wmo:42048:1,2012-08-04T11:00:00Z,27.9396,-96.8429,2.0,36.375,11111222 
TABS,ioos:station:wmo:42048:1,2012-08-04T11:30:00Z,27.9396,-96.8429,2.0,36.3755,11111222 
TABS,ioos:station:wmo:42048:1,2012-08-04T12:00:00Z,27.9396,-96.8429,2.0,36.3737,11111222 
TABS,ioos:station:wmo:42048:1,2012-08-04T12:30:00Z,27.9396,-96.8429,2.0,36.3741,11111222 
TABS,ioos:station:wmo:42048:1,2012-08-04T13:00:00Z,27.9396,-96.8429,2.0,36.3732,11111222 
TABS,ioos:station:wmo:42048:1,2012-08-04T13:30:00Z,27.9396,-96.8429,2.0,36.3746,11111222 
TABS,ioos:station:wmo:42048:1,2012-08-04T14:00:00Z,27.9396,-96.8429,2.0,36.3762,11111222 
TABS,ioos:station:wmo:42048:1,2012-08-04T14:30:00Z,27.9396,-96.8429,2.0,36.3752,11111222 
TABS,ioos:station:wmo:42048:1,2012-08-04T15:00:00Z,27.9396,-96.8429,2.0,36.3723,11111222 
TABS,ioos:station:wmo:42048:1,2012-08-04T15:30:00Z,27.9396,-96.8429,2.0,36.3759,11111222 
TABS,ioos:station:wmo:42048:1,2012-08-04T16:00:00Z,27.9396,-96.8429,2.0,36.3741,11111222 
TABS,ioos:station:wmo:42048:1,2012-08-04T16:30:00Z,27.9396,-96.8429,2.0,36.3834,11111222 
TABS,ioos:station:wmo:42048:1,2012-08-04T17:00:00Z,27.9396,-96.8429,2.0,36.3738,11111222 
TABS,ioos:station:wmo:42048:1,2012-08-04T17:30:00Z,27.9396,-96.8429,2.0,36.404,11111222 
TABS,ioos:station:wmo:42048:1,2012-08-04T18:00:00Z,27.9396,-96.8429,2.0,36.38,11111222 
TABS,ioos:station:wmo:42048:1,2012-08-04T18:30:00Z,27.9396,-96.8429,2.0,36.3866,11111222 
TABS,ioos:station:wmo:42048:1,2012-08-04T19:00:00Z,27.9396,-96.8429,2.0,36.3882,11111222 
TABS,ioos:station:wmo:42048:1,2012-08-04T19:30:00Z,27.9396,-96.8429,2.0,36.3837,11111222 
TABS,ioos:station:wmo:42048:1,2012-08-04T20:00:00Z,27.9396,-96.8429,2.0,36.38,11111222 
TABS,ioos:station:wmo:42048:1,2012-08-04T20:30:00Z,27.9396,-96.8429,2.0,36.3832,11111222 
TABS,ioos:station:wmo:42048:1,2012-08-04T21:00:00Z,27.9396,-96.8429,2.0,36.379,11111222 
TABS,ioos:station:wmo:42048:1,2012-08-04T21:30:00Z,27.9396,-96.8429,2.0,36.3798,11111222 
TABS,ioos:station:wmo:42048:1,2012-08-04T22:00:00Z,27.9396,-96.8429,2.0,36.3808,11111222 
TABS,ioos:station:wmo:42048:1,2012-08-04T22:30:00Z,27.9396,-96.8429,2.0,36.3809,11111222 
TABS,ioos:station:wmo:42048:1,2012-08-04T23:00:00Z,27.9396,-96.8429,2.0,36.3846,11111222 
TABS,ioos:station:wmo:42048:1,2012-08-04T23:30:00Z,27.9396,-96.8429,2.0,36.3832,11111222 
TABS,ioos:station:wmo:42048:1,2012-08-05T00:00:00Z,27.9396,-96.8429,2.0,36.3821,11111222 
TABS,ioos:station:wmo:42048:1,2012-08-05T00:30:00Z,27.9396,-96.8429,2.0,36.3813,11111222 
TABS,ioos:station:wmo:42048:1,2012-08-05T01:00:00Z,27.9396,-96.8429,2.0,36.382,11111222 
TABS,ioos:station:wmo:42048:1,2012-08-05T01:30:00Z,27.9396,-96.8429,2.0,36.3813,11111222 
TABS,ioos:station:wmo:42048:1,2012-08-05T02:00:00Z,27.9396,-96.8429,2.0,36.3821,11111222 
TABS,ioos:station:wmo:42048:1,2012-08-05T02:30:00Z,27.9396,-96.8429,2.0,36.3816,11111222 
TABS,ioos:station:wmo:42048:1,2012-08-05T03:00:00Z,27.9396,-96.8429,2.0,36.3823,11111222 
TABS,ioos:station:wmo:42048:1,2012-08-05T03:30:00Z,27.9396,-96.8429,2.0,36.3841,11111222 
TABS,ioos:station:wmo:42048:1,2012-08-05T04:00:00Z,27.9396,-96.8429,2.0,36.3867,11111222 
TABS,ioos:station:wmo:42048:1,2012-08-05T04:30:00Z,27.9396,-96.8429,2.0,36.3862,11111222 
TABS,ioos:station:wmo:42048:1,2012-08-05T05:00:00Z,27.9396,-96.8429,2.0,36.3853,11111222 
TABS,ioos:station:wmo:42048:1,2012-08-05T05:30:00Z,27.9396,-96.8429,2.0,36.3848,11111222 
TABS,ioos:station:wmo:42048:1,2012-08-05T06:00:00Z,27.9396,-96.8429,2.0,36.3844,11111222 
TABS,ioos:station:wmo:42048:1,2012-08-05T06:30:00Z,27.9396,-96.8429,2.0,36.3854,11111222 
TABS,ioos:station:wmo:42048:1,2012-08-05T07:00:00Z,27.9396,-96.8429,2.0,36.3843,11111222 
TABS,ioos:station:wmo:42048:1,2012-08-05T07:30:00Z,27.9396,-96.8429,2.0,36.3838,11111222 
TABS,ioos:station:wmo:42048:1,2012-08-05T08:00:00Z,27.9396,-96.8429,2.0,36.3857,11111222 
TABS,ioos:station:wmo:42048:1,2012-08-05T08:30:00Z,27.9396,-96.8429,2.0,36.3857,11111222 
TABS,ioos:station:wmo:42048:1,2012-08-05T09:00:00Z,27.9396,-96.8429,2.0,36.386,11111222 
TABS,ioos:station:wmo:42048:1,2012-08-05T09:30:00Z,27.9396,-96.8429,2.0,36.385,11111222 
TABS,ioos:station:wmo:42048:1,2012-08-05T10:00:00Z,27.9396,-96.8429,2.0,36.3841,11111222 
TABS,ioos:station:wmo:42048:1,2012-08-05T10:30:00Z,27.9396,-96.8429,2.0,36.3843,11111222 
TABS,ioos:station:wmo:42048:1,2012-08-05T11:00:00Z,27.9396,-96.8429,2.0,36.3843,11111222 
TABS,ioos:station:wmo:42048:1,2012-08-05T11:30:00Z,27.9396,-96.8429,2.0,36.3842,11111222 
TABS,ioos:station:wmo:42048:1,2012-08-05T12:00:00Z,27.9396,-96.8429,2.0,36.3832,11111222 
TABS,ioos:station:wmo:42048:1,2012-08-05T12:30:00Z,27.9396,-96.8429,2.0,36.3831,11111222 
TABS,ioos:station:wmo:42048:1,2012-08-05T13:00:00Z,27.9396,-96.8429,2.0,36.3823,11111222 
TABS,ioos:station:wmo:42048:1,2012-08-05T13:30:00Z,27.9396,-96.8429,2.0,36.3824,11111222 
TABS,ioos:station:wmo:42048:1,2012-08-05T14:00:00Z,27.9396,-96.8429,2.0,36.3828,11111222 
TABS,ioos:station:wmo:42048:1,2012-08-05T14:30:00Z,27.9396,-96.8429,2.0,36.3815,11111222 
TABS,ioos:station:wmo:42048:1,2012-08-05T15:00:00Z,27.9396,-96.8429,2.0,36.3831,11111222 
TABS,ioos:station:wmo:42048:1,2012-08-05T15:30:00Z,27.9396,-96.8429,2.0,36.3819,11111222 
TABS,ioos:station:wmo:42048:1,2012-08-05T16:00:00Z,27.9396,-96.8429,2.0,36.3813,11111222 
TABS,ioos:station:wmo:42048:1,2012-08-05T16:30:00Z,27.9396,-96.8429,2.0,36.381,11111222 
TABS,ioos:station:wmo:42048:1,2012-08-05T17:00:00Z,27.9396,-96.8429,2.0,36.376,11111222 
TABS,ioos:station:wmo:42048:1,2012-08-05T17:30:00Z,27.9396,-96.8429,2.0,36.3836,11111222 
TABS,ioos:station:wmo:42048:1,2012-08-05T18:00:00Z,27.9396,-96.8429,2.0,36.3806,11111222 
TABS,ioos:station:wmo:42048:1,2012-08-05T18:30:00Z,27.9396,-96.8429,2.0,36.3806,11111222 
TABS,ioos:station:wmo:42048:1,2012-08-05T19:00:00Z,27.9396,-96.8429,2.0,36.3823,11111222 
TABS,ioos:station:wmo:42048:1,2012-08-05T19:30:00Z,27.9396,-96.8429,2.0,36.3811,11111222 
TABS,ioos:station:wmo:42048:1,2012-08-05T20:00:00Z,27.9396,-96.8429,2.0,36.3834,11111222 
TABS,ioos:station:wmo:42048:1,2012-08-05T20:30:00Z,27.9396,-96.8429,2.0,36.3824,11111222 
TABS,ioos:station:wmo:42048:1,2012-08-05T21:00:00Z,27.9396,-96.8429,2.0,36.3834,11111222 
TABS,ioos:station:wmo:42048:1,2012-08-05T21:30:00Z,27.9396,-96.8429,2.0,36.3837,11111222 
TABS,ioos:station:wmo:42048:1,2012-08-05T22:00:00Z,27.9396,-96.8429,2.0,36.3839,11111222 
TABS,ioos:station:wmo:42048:1,2012-08-05T22:30:00Z,27.9396,-96.8429,2.0,36.3829,11111222 
TABS,ioos:station:wmo:42048:1,2012-08-05T23:00:00Z,27.9396,-96.8429,2.0,36.3839,11111222 
TABS,ioos:station:wmo:42048:1,2012-08-05T23:30:00Z,27.9396,-96.8429,2.0,36.3851,11111222 
TABS,ioos:station:wmo:42048:1,2012-08-06T00:00:00Z,27.9396,-96.8429,2.0,36.3857,11111222 
TABS,ioos:station:wmo:42048:1,2012-08-06T00:30:00Z,27.9396,-96.8429,2.0,36.3869,11111222 
TABS,ioos:station:wmo:42048:1,2012-08-06T01:00:00Z,27.9396,-96.8429,2.0,36.3863,11111222 
TABS,ioos:station:wmo:42048:1,2012-08-06T01:30:00Z,27.9396,-96.8429,2.0,36.3857,11111222 
TABS,ioos:station:wmo:42048:1,2012-08-06T02:00:00Z,27.9396,-96.8429,2.0,36.3866,11111222 
TABS,ioos:station:wmo:42048:1,2012-08-06T02:30:00Z,27.9396,-96.8429,2.0,36.3869,11111222 
TABS,ioos:station:wmo:42048:1,2012-08-06T03:00:00Z,27.9396,-96.8429,2.0,36.3882,11111222 
TABS,ioos:station:wmo:42048:1,2012-08-06T03:30:00Z,27.9396,-96.8429,2.0,36.3888,11111222 
TABS,ioos:station:wmo:42048:1,2012-08-06T04:00:00Z,27.9396,-96.8429,2.0,36.3875,11111222 
TABS,ioos:station:wmo:42048:1,2012-08-06T04:30:00Z,27.9396,-96.8429,2.0,36.3888,11111222 
TABS,ioos:station:wmo:42048:1,2012-08-06T05:00:00Z,27.9396,-96.8429,2.0,36.3888,11111222 
TABS,ioos:station:wmo:42048:1,2012-08-06T05:30:00Z,27.9396,-96.8429,2.0,36.3901,11111222 
TABS,ioos:station:wmo:42048:1,2012-08-06T06:00:00Z,27.9396,-96.8429,2.0,36.3894,11111222 
TABS,ioos:station:wmo:42048:1,2012-08-06T06:30:00Z,27.9396,-96.8429,2.0,36.3899,11111222 
TABS,ioos:station:wmo:42048:1,2012-08-06T07:00:00Z,27.9396,-96.8429,2.0,36.3902,11111222 
TABS,ioos:station:wmo:42048:1,2012-08-06T07:30:00Z,27.9396,-96.8429,2.0,36.3884,11111222 
TABS,ioos:station:wmo:42048:1,2012-08-06T08:00:00Z,27.9396,-96.8429,2.0,36.3888,11111222 
TABS,ioos:station:wmo:42048:1,2012-08-06T08:30:00Z,27.9396,-96.8429,2.0,36.3881,11111222 
TABS,ioos:station:wmo:42048:1,2012-08-06T09:00:00Z,27.9396,-96.8429,2.0,36.387,11111222 
TABS,ioos:station:wmo:42048:1,2012-08-06T09:30:00Z,27.9396,-96.8429,2.0,36.3881,11111222 
TABS,ioos:station:wmo:42048:1,2012-08-06T10:00:00Z,27.9396,-96.8429,2.0,36.3881,11111222 
TABS,ioos:station:wmo:42048:1,2012-08-06T10:30:00Z,27.9396,-96.8429,2.0,36.3874,11111222 
TABS,ioos:station:wmo:42048:1,2012-08-06T11:00:00Z,27.9396,-96.8429,2.0,36.3873,11111222 
TABS,ioos:station:wmo:42048:1,2012-08-06T11:30:00Z,27.9396,-96.8429,2.0,36.3865,11111222 
TABS,ioos:station:wmo:42048:1,2012-08-06T12:00:00Z,27.9396,-96.8429,2.0,36.3866,11111222 
TABS,ioos:station:wmo:42048:1,2012-08-06T12:30:00Z,27.9396,-96.8429,2.0,36.3884,11111222 
TABS,ioos:station:wmo:42048:1,2012-08-06T13:00:00Z,27.9396,-96.8429,2.0,36.3868,11111222 
TABS,ioos:station:wmo:42048:1,2012-08-06T13:30:00Z,27.9396,-96.8429,2.0,36.3884,11111222 
TABS,ioos:station:wmo:42048:1,2012-08-06T14:00:00Z,27.9396,-96.8429,2.0,36.3892,11111222 
TABS,ioos:station:wmo:42048:1,2012-08-06T14:30:00Z,27.9396,-96.8429,2.0,36.3905,11111222 
TABS,ioos:station:wmo:42048:1,2012-08-06T15:00:00Z,27.9396,-96.8429,2.0,36.3889,11111222 
TABS,ioos:station:wmo:42048:1,2012-08-06T15:30:00Z,27.9396,-96.8429,2.0,36.3909,11111222 
TABS,ioos:station:wmo:42048:1,2012-08-06T16:00:00Z,27.9396,-96.8429,2.0,36.3886,11111222 
TABS,ioos:station:wmo:42048:1,2012-08-06T16:30:00Z,27.9396,-96.8429,2.0,36.3887,11111222 
TABS,ioos:station:wmo:42048:1,2012-08-06T17:00:00Z,27.9396,-96.8429,2.0,36.3928,11111222 
TABS,ioos:station:wmo:42048:1,2012-08-06T17:30:00Z,27.9396,-96.8429,2.0,36.3977,11111222 
TABS,ioos:station:wmo:42048:1,2012-08-06T18:00:00Z,27.9396,-96.8429,2.0,36.3726,11111222 
TABS,ioos:station:wmo:42048:1,2012-08-06T18:30:00Z,27.9396,-96.8429,2.0,36.4269,11111222 
TABS,ioos:station:wmo:42048:1,2012-08-06T19:00:00Z,27.9396,-96.8429,2.0,36.4109,11111222 
TABS,ioos:station:wmo:42048:1,2012-08-06T19:30:00Z,27.9396,-96.8429,2.0,36.3959,11111222 
TABS,ioos:station:wmo:42048:1,2012-08-06T20:00:00Z,27.9396,-96.8429,2.0,36.4054,11111222 
TABS,ioos:station:wmo:42048:1,2012-08-06T20:30:00Z,27.9396,-96.8429,2.0,36.3964,11111222 
TABS,ioos:station:wmo:42048:1,2012-08-06T21:00:00Z,27.9396,-96.8429,2.0,36.3982,11111222 
TABS,ioos:station:wmo:42048:1,2012-08-06T21:30:00Z,27.9396,-96.8429,2.0,36.3959,11111222 
TABS,ioos:station:wmo:42048:1,2012-08-06T22:00:00Z,27.9396,-96.8429,2.0,36.3983,11111222 
TABS,ioos:station:wmo:42048:1,2012-08-06T22:30:00Z,27.9396,-96.8429,2.0,36.3965,11111222 
TABS,ioos:station:wmo:42048:1,2012-08-06T23:00:00Z,27.9396,-96.8429,2.0,36.3941,11111222 
TABS,ioos:station:wmo:42048:1,2012-08-06T23:30:00Z,27.9396,-96.8429,2.0,36.392,11111222 
TABS,ioos:station:wmo:42048:1,2012-08-07T00:00:00Z,27.9396,-96.8429,2.0,36.3939,11111222 
TABS,ioos:station:wmo:42048:1,2012-08-07T00:30:00Z,27.9396,-96.8429,2.0,36.3945,11111222 
TABS,ioos:station:wmo:42048:1,2012-08-07T01:00:00Z,27.9396,-96.8429,2.0,36.3949,11111222 
TABS,ioos:station:wmo:42048:1,2012-08-07T01:30:00Z,27.9396,-96.8429,2.0,36.3942,11111222 
TABS,ioos:station:wmo:42048:1,2012-08-07T02:00:00Z,27.9396,-96.8429,2.0,36.3944,11111222 
TABS,ioos:station:wmo:42048:1,2012-08-07T02:30:00Z,27.9396,-96.8429,2.0,36.3934,11111222 
TABS,ioos:station:wmo:42048:1,2012-08-07T03:00:00Z,27.9396,-96.8429,2.0,36.3943,11111222 
TABS,ioos:station:wmo:42048:1,2012-08-07T03:30:00Z,27.9396,-96.8429,2.0,36.3936,11111222 
TABS,ioos:station:wmo:42048:1,2012-08-07T04:00:00Z,27.9396,-96.8429,2.0,36.3933,11111222 
TABS,ioos:station:wmo:42048:1,2012-08-07T04:30:00Z,27.9396,-96.8429,2.0,36.3928,11111222 
TABS,ioos:station:wmo:42048:1,2012-08-07T05:00:00Z,27.9396,-96.8429,2.0,36.3925,11111222 